This is the latest recevied weather packets stored in our database for station/object KE5YIM-13. If no packets are shown the sender has not sent any weather packets the latest 10 day(s).
| Time | Temp. | Humidity | Pressure | Rain* | Wind** | Luminosity | Snow |
|---|---|---|---|---|---|---|---|
| 1777866412 | 3.33° C | 85% | 1013.1 hPa | 0 mm | - | 0 W/m² | - |
| 1777866109 | 3.89° C | 85% | 1012.9 hPa | 0 mm | - | 0 W/m² | - |
| 1777865807 | 3.89° C | 84% | 1012.9 hPa | 0 mm | - | 0 W/m² | - |
| 1777865504 | 3.89° C | 84% | 1012.9 hPa | 0 mm | - | 0 W/m² | - |
| 1777865201 | 3.89° C | 84% | 1013 hPa | 0 mm | - | 0 W/m² | - |
| 1777864898 | 3.89° C | 84% | 1012.7 hPa | 0 mm | - | 0 W/m² | - |
| 1777864595 | 4.44° C | 85% | 1012.9 hPa | 0 mm | - | 0 W/m² | - |
| 1777864292 | 3.89° C | 84% | 1012.7 hPa | 0 mm | - | 0 W/m² | - |
| 1777863988 | 3.89° C | 83% | 1012.9 hPa | 0 mm | - | 0 W/m² | - |
| 1777863685 | 4.44° C | 83% | 1012.7 hPa | 0 mm | - | 0 W/m² | - |
| 1777863382 | 4.44° C | 83% | 1012.8 hPa | 0 mm | - | 0 W/m² | - |
| 1777863079 | 4.44° C | 83% | 1012.8 hPa | 0 mm | - | 0 W/m² | - |
| 1777862776 | 4.44° C | 82% | 1012.9 hPa | 0 mm | - | 0 W/m² | - |
| 1777862473 | 5° C | 82% | 1013 hPa | 0 mm | - | 0 W/m² | - |
| 1777862169 | 5° C | 81% | 1013 hPa | 0 mm | - | 0 W/m² | - |
| 1777861865 | 5° C | 80% | 1013 hPa | 0 mm | - | 0 W/m² | - |
| 1777861561 | 5° C | 79% | 1012.7 hPa | 0 mm | - | 0 W/m² | - |
| 1777861257 | 5° C | 78% | 1012.9 hPa | 0 mm | - | 0 W/m² | - |
| 1777860955 | 5° C | 77% | 1012.8 hPa | 0 mm | - | 0 W/m² | - |
| 1777860652 | 5.56° C | 75% | 1013 hPa | 0 mm | - | 0 W/m² | - |
| 1777860349 | 5.56° C | 74% | 1012.8 hPa | 0 mm | - | 0 W/m² | - |
| 1777860045 | 6.11° C | 74% | 1012.9 hPa | 0 mm | - | 0 W/m² | - |
| 1777859742 | 6.11° C | 73% | 1012.7 hPa | 0 mm | - | 0 W/m² | - |
| 1777859438 | 6.11° C | 73% | 1012.8 hPa | 0 mm | - | 0 W/m² | - |
| 1777859134 | 6.11° C | 72% | 1012.7 hPa | 0 mm | - | 0 W/m² | - |
* Rain latest hour (hover to see other rain measurements)
** Current wind speed in m/s (hover to see current wind gust speed)